Regional Weather Roundup
Issued by NWS

Home | Current Version | Previous Version | Graphics & Text | Print | Product List | Glossary Off
Versions: 1 2 3 4 5 6 7 8 9 10 11 12 13 14 15 16 17 18 19 20 21 22 23 24 25 26 27 28 29 30 31 32 33 34 35 36 37 38 39 40 41 42 43 44 45 46 47 48 49 50

000
ASUS43 KMKX 062021
RWRWI

WISCONSIN REGIONAL WEATHER ROUNDUP
NATIONAL WEATHER SERVICE MILWAUKEE/SULLIVAN WI
300 PM CDT WED MAY 06 2015

NOTE: "FAIR" INDICATES FEW OR NO CLOUDS BELOW 12,000 FEET WITH NO
SIGNIFICANT WEATHER AND/OR OBSTRUCTIONS TO VISIBILITY.

WIZ001-002-006>008-014>016-023>028-062100-
NORTHWEST WISCONSIN

CITY           SKY/WX    TMP DP  RH WIND       PRES   REMARKS
SUPERIOR ARPT  CLOUDY    49  39  68 E12       30.05F
ASHLAND        CLOUDY    61  55  81 NE12      30.07F
HAYWARD        CLOUDY    67  55  65 E9        30.04F
SIREN          CLOUDY    72  55  55 SE12      29.99F
CUMBERLAND     PTSUNNY   70  55  60 SE13      30.01F
RICE LAKE      PTSUNNY   70  56  62 SE13      30.03F
CHETEK         PTSUNNY   71  59  66 E12       30.02F
LADYSMITH      CLOUDY    67  57  72 SE8       30.08F
EAU CLAIRE     MOSUNNY   75  59  57 SE15G21   30.01F
MENOMONIE      PTSUNNY   72  59  64 E12G17    30.01F
NEW RICHMOND   CLOUDY    71  57  62 E12G20    29.98F
OSCEOLA        CLOUDY    71  60  68 SE13G18   29.99F
$$

WIZ003>005-009-010-017-018-062100-
NORTH CENTRAL WISCONSIN

CITY           SKY/WX    TMP DP  RH WIND       PRES   REMARKS
MANITOWISH WTR CLOUDY    65  58  80 SE8       30.11F
ARBOR VITAE    CLOUDY    65  56  74 S8        30.11F
WOODRUFF       CLOUDY    65  56  74 S8        30.11F
RHINELANDER    CLOUDY    65  56  72 SE9       30.13F
EAGLE RIVER    PTSUNNY   68  53  60 SE6       30.12F
LAND O LAKES   PTSUNNY   69  53  57 S8        30.13F
PHILLIPS       CLOUDY    63  57  81 SE9       30.09F
TOMAHAWK       CLOUDY    62  57  82 E5        30.12F
MEDFORD        CLOUDY    67  58  71 SE10G16   30.09F
MERRILL        CLOUDY    65  58  77 SE9       30.12F
$$

WIZ029-030-035-036-043>047-062100-
CENTRAL WISCONSIN

CITY           SKY/WX    TMP DP  RH WIND       PRES   REMARKS
WAUSAU         CLOUDY    68  56  65 SE9       30.09F
MOSINEE        SUNNY     70  57  64 E12G17    30.11F
MARSHFIELD     PTSUNNY   73  57  57 SE14      30.08F
STEVENS POINT  PTSUNNY   69  56  64 SE10      30.10F
WAUPACA        CLOUDY    69  57  65 E7        30.12F
WAUTOMA        PTSUNNY   71  59  66 E8        30.11F
WISC RAPIDS    PTSUNNY   75  56  51 S6        30.09F
CAMP DOUGLAS   PTSUNNY   75 N/A N/A SE9       30.05F
$$

WIZ011>013-019>022-031-037>040-048>050-062100-
NORTHEAST WISCONSIN

CITY           SKY/WX    TMP DP  RH WIND       PRES   REMARKS
ANTIGO         CLOUDY    65  58  76 SE14      30.14F
SHAWANO        MOSUNNY   67  57  69 NE8       30.15F
OCONTO         SUNNY     63  53  72 SE8       30.17S
STURGEON BAY   MOSUNNY   57  46  67 E9        30.20F
GREEN BAY      MOSUNNY   71  57  61 E7        30.14F
MANITOWOC        N/A    N/A N/A N/A MISG        N/A
APPLETON       PTSUNNY   64  55  72 SE12      30.13F
CLINTONVILLE   PTSUNNY   70  55  60 SE8       30.13F
OSHKOSH        PTSUNNY   63  56  78 E13       30.13F
$$

WIZ032>034-041-042-053>061-062100-
SOUTHWEST WISCONSIN

CITY           SKY/WX    TMP DP  RH WIND       PRES   REMARKS
LA CROSSE      PTSUNNY   78  59  51 SE14      30.00F
SPARTA         MOSUNNY   76  58  53 SE8G17    30.04F
VIROQUA        PTSUNNY   74  60  59 E12       30.04F
BOSCOBEL       MOSUNNY   80  61  52 VRB6      30.03F HX  81
PRAIRIE DU CHI MOSUNNY   78  56  46 SE12G17   30.01F
PLATTEVILLE    SUNNY     78  63  60 SE17      30.05F
$$

WIZ056-057-062-063-064-067-068-062100-
SOUTH CENTRAL WISCONSIN

CITY           SKY/WX    TMP DP  RH WIND       PRES   REMARKS
REEDSBURG      MOSUNNY   73  61  65 SE9       30.06F
BARABOO/DELLS  NOT AVBL
LONE ROCK      PTSUNNY   76  62  62 SE9       30.05F
MINERAL POINT  MOSUNNY   77  61  57 SE12      30.07F
MADISON        PTSUNNY   73  61  65 E12       30.09F
MIDDLETON      MOSUNNY   74  61  64 E9        30.09F
WATERTOWN      MOSUNNY   69  63  80 E10       30.11F
MONROE         MOSUNNY   75  63  64 SE8       30.09F
JANESVILLE     PTSUNNY   79  61  53 SE9       30.09F HX  80
$$

WIZ051-052-058>065-066-070>072-062100-
SOUTHEAST WISCONSIN

CITY           SKY/WX    TMP DP  RH WIND       PRES   REMARKS
MILWAUKEE      PTSUNNY   55  50  83 E8        30.15F HAZE
WAUKESHA       MOSUNNY   63  54  72 E8        30.15F
MILWAUKEE/TIMM SUNNY     57  50  77 NE7       30.17F
RACINE         CLOUDY    55  50  83 E7        30.17F HAZE
BURLINGTON     MOSUNNY   65  57  75 E8        30.13F
KENOSHA        PTSUNNY   57  53  86 E12       30.15F
FOND DU LAC    PTSUNNY   63  57  81 SE8       30.14F
SHEBOYGAN      PTSUNNY   58  53  84 SE6       30.16F
WEST BEND      PTSUNNY   63  52  67 E6        30.15F
JUNEAU         PTSUNNY   69  61  75 E8        30.13F
$$

LSZ147-162-062100-
LAKE SUPERIOR

STATION/POSITION TIME  TEMP    WIND        PRES    WAVE
                       AIR SEA DIR/SP/G            HT/PER
                 (UTC) (F)     (DEG/KT/KT) (MB)    (FT/S)
W MID LAKE BUOY  1950   39 36   40/  6/  8 1020.5F   0
DEVILS ISLAND    2000   41      50/  8/  9 1019.5F
PORT WING        1940   42      30/ 17/ 19 1017.9F
SAXON HARBOR     1900          330/  3/ 18 1018.6
$$

LMZ867-665-643>646-062100-
LAKE MICHIGAN

STATION/POSITION TIME  TEMP    WIND        PRES    WAVE
                       AIR SEA DIR/SP/G            HT/PER
                 (UTC) (F)     (DEG/KT/KT) (MB)    (FT/S)
CHAMBERS ISLAND  1900   54     360/  6/  6 1022.7S
NORTHPORT PIER   1900   47     160/  4/  7 1022.7F
SISTER BAY       1747   60     170/  9/ 11   N/A
KEWAUNEE LAKESHO 1900           50/  2/  5   N/A
SHEBOYGAN LAKESH 2000   47     180/  5/  6 1022.1F
PORT WASHINGTON  1900   48      80/  2/  3 1023.0
ATWATER BUOY     2000   44      20/  6/  6 1022.4F
MILWAUKEE LAKESH 2000   46      50/  8/  8   N/A
KENOSHA   LAKESH 2000   46      40/  3/  5 1021.0F
$$

TC  - TEMPERATURE IN CELSIUS
VSB - VISIBILITY IN STATUTE MILES
WCI - WIND CHILL INDEX
HX  - HEAT INDEX



USA.gov is the U.S. government's official web portal to all federal, state and local government web resources and services.